Weather in Truckee

United States     39°19′40″N   120°10′59″W
temp.,
°C
wind,
m/s
gust,
m/s
humid.,
%
clouds,
%
prec.,
mm/h
press.,
hPa
HPBL,
m
18 september, sat
sat1823:00+7sw22640 0.0 101923
02:00+6sw22690 0.0 101827
05:00+5ssw23810 0.0 101833
08:00+10ssw4125643 0.0 1016788
11:00+16sw816264 0.0 10151689
14:00+15sw917293 0.0 10151686
17:00+13sw817410 0.0 10141456
20:00+6sw4139371 0.0 1018797
19 september, sun
sun1923:00+7sw31292100 0.3 1017755
02:00+7sw51497100 1.3 10161193
05:00+7sw81796100 2.3 10141265
08:00+6sw51291100 0.3 10171042
11:00+9sw486545 0.3 1018995
14:00+15wsw463292 0.0 10151479
17:00+15wsw33280 0.0 10151393
20:00+5n01574 0.0 101911
20 september, mon
mon2023:00+4ene33626 0.0 102149
02:00+3e32674 0.0 102140
05:00+2e33694 0.0 102244
08:00+6e34530 0.0 1022153
11:00+15e35250 0.0 1019748
14:00+20e33170 0.0 10171113
17:00+19e43180 0.0 10171082
20:00+8e32360 0.0 102325
21 september, tue
tue2123:00+6e22390 0.0 102527
02:00+5e22400 0.0 102524
05:00+5e22420 0.0 102623
08:00+10ese22330 0.0 102561
11:00+23ssw35160 0.0 10201554
14:00+25wsw66150 0.0 10192041
17:00+22wsw56180 0.0 10201465
20:00+11ssw11410 0.0 102411
22 september, wed
wed2223:00+9sse11450 0.0 102611
02:00+9s11425 0.0 102511
05:00+8s114354 0.0 102511
08:00+13s11350 0.0 102440
11:00+22sw581893 0.0 10211969
14:00+23wsw79154 0.0 10192318
17:00+20wsw571992 0.0 10181744
20:00+10sw114459 0.0 102211